Flag for Germany Weather past 2 weeks in Calw, Baden-Württemberg, Germany

Now
61 °F

Light rain. Low clouds.


Feels Like: 61 °F
Forecast: 60 / 69 °F
Wind: 1 mph from South

Location: Stuttgart-Echterdingen

Current Time: Jul 29, 2014 at 5:44:24 AM

Latest Report: Jul 29, 2014 at 5:00 AM


Visibility: 11 mi

Pressure: 29.80 "Hg

Humidity: 96%

Dew point: 60 °F

Location of CalwLocation

Historic Weather in Calw — Graph

°F

Calw temperature yesterday

Maximum temperature yesterday: 79 °F (at 6:00 PM)
Minimum temperature yesterday: 60 °F (at 6:00 AM)
Average temperature yesterday: 70 °F

Past Weeks' High & Low Weather Summary

 TemperatureHumidityPressure
High91 °F (Jul 19, 4:00 PM)100% (Jul 23, 6:00 AM)30.20 "Hg (Jul 23, 6:00 AM)
Low56 °F (Jul 16, 6:00 AM)25% (Jul 18, 3:00 PM)29.72 "Hg (Jul 28, 6:00 PM)
Average69 °F70%29.96 "Hg
* Reported Jul 14 4:00 AM — Jul 29 4:00 AM, Calw, Weather by CustomWeather, © 2014

Note: Actual official high and low records may vary slightly from our data, if they occured in-between our weather recording intervals... More about our weather records

Advertising

Calw weather history for previous 24 hours

 ConditionsComfort  
Time TempWeatherWind HumidityBarometerVisibility
4:00 AM
Jul 29
61 °FLow clouds.2 mph97%29.80 "Hg12 mi
3:00 AM61 °FLight rain. Low clouds.1 mph98%29.82 "Hg6 mi
2:00 AM61 °FHeavy rain. Overcast.1 mph98%29.82 "Hg4 mi
1:00 AM61 °FHeavy rain. Overcast.2 mph96%29.84 "Hg5 mi
12:00 AM62 °FLight rain. Overcast.1 mph94%29.82 "Hg11 mi
10:00 PM
Jul 28
62 °FThundershowers. Low clouds.9 mph95%29.83 "Hg4 mi
9:00 PM69 °FThundershowers. Overcast.2 mph86%29.78 "Hg2 mi
8:00 PM73 °FThunderstorms. Overcast.7 mph70%29.74 "Hg25 mi
7:00 PM76 °FOvercast.7 mph60%29.73 "Hg40 mi
6:00 PM79 °FScattered clouds.5 mph51%29.72 "Hg37 mi
4:00 PM78 °FPartly sunny.5 mph56%29.76 "Hg31 mi
3:00 PM78 °FPartly sunny.2 mph54%29.78 "Hg28 mi
2:00 PM79 °FScattered clouds.2 mph55%29.80 "Hg22 mi
1:00 PM77 °FScattered clouds.2 mph62%29.83 "Hg19 mi
12:00 PM75 °FPartly sunny.1 mph65%29.84 "Hg19 mi
11:00 AM73 °FPartly sunny.2 mph71%29.86 "Hg16 mi
10:00 AM69 °FPartly sunny.1 mph84%29.89 "Hg16 mi
9:00 AM66 °FPartly sunny.1 mph90%29.90 "Hg16 mi
8:00 AM64 °FPartly sunny.1 mph95%29.92 "Hg16 mi
7:00 AM61 °FPartly sunny.No wind96%29.93 "Hg16 mi
6:00 AM60 °FScattered clouds.1 mph93%29.93 "Hg19 mi
Weather by CustomWeather, © 2014

See weather overviewHow to use our weather pages